Location: ?????????
(38.5999°N, 22.7695°E)
Time: 16:32:32
(UTC+00:00)

Cosmos 1892 - Pass Details

Date: 23 May 2024
Orbit: 455 x 467 km, 82.5° (Epoch: 24 June)

Event Time Altitude Azimuth Distance (km) Brightness Sun altitude
Exits shadow 01:08:04 19° 140° (SE) 1,155 4.3 -19.6°
Maximum altitude 01:09:52 30° 92° (E) 840 4.1 -19.4°
Drops below altitude 10° 01:12:59 10° 29° (NNE) 1,605 6.4 -19.0°
Sets 01:15:12 0° 19° (NNE) 2,482 7.4 -18.7°
